This is the latest recevied weather packets stored in our database for station/object K3JSE-2. If no packets are shown the sender has not sent any weather packets the latest 10 day(s).
| Time | Temp. | Humidity | Pressure | Rain* | Wind** | Luminosity | Snow |
|---|---|---|---|---|---|---|---|
| 1778165423 | 12.78° C | 58% | 1012.1 hPa | 0 mm | - | - | - |
| 1778165143 | 12.78° C | 58% | 1012.2 hPa | 0 mm | - | - | - |
| 1778164924 | 12.22° C | 59% | 1012.2 hPa | 0 mm | - | - | - |
| 1778164876 | 12.22° C | 59% | 1012.2 hPa | 0 mm | - | - | - |
| 1778164613 | 12.22° C | 67% | 1012.3 hPa | 0 mm | - | - | - |
| 1778164353 | 12.22° C | 58% | 1012.2 hPa | 0 mm | - | - | - |
| 1778164270 | 12.22° C | 62% | 1012.2 hPa | 0 mm | - | - | - |
| 1778164063 | 12.22° C | 61% | 1012.2 hPa | 0 mm | - | - | - |
| 1778163818 | 12.22° C | 69% | 1012.3 hPa | 0 mm | - | - | - |
| 1778163585 | 12.22° C | 65% | 1012.3 hPa | 0 mm | - | - | - |
| 1778163547 | 12.22° C | 65% | 1012.3 hPa | 0 mm | - | - | - |
| 1778163308 | 12.22° C | 65% | 1012.5 hPa | 0 mm | - | - | - |
| 1778163058 | 11.67° C | 66% | 1012.5 hPa | 0 mm | - | - | - |
| 1778162919 | 11.67° C | 64% | 1012.4 hPa | 0 mm | - | - | - |
| 1778162813 | 11.67° C | 66% | 1012.4 hPa | 0 mm | - | - | - |
| 1778162527 | 10.56° C | 69% | 1012.4 hPa | 0 mm | - | - | - |
| 1778162278 | 10.56° C | 67% | 1012.4 hPa | 0 mm | - | - | - |
| 1778162175 | 10.56° C | 72% | 1012.3 hPa | 0 mm | - | - | - |
| 1778162008 | 10.56° C | 70% | 1012.4 hPa | 0 mm | - | - | - |
| 1778161713 | 10.56° C | 71% | 1012.3 hPa | 0 mm | - | - | - |
| 1778161475 | 10.56° C | 71% | 1012.4 hPa | 0 mm | - | - | - |
| 1778161438 | 10.56° C | 71% | 1012.4 hPa | 0 mm | - | - | - |
| 1778161183 | 10° C | 69% | 1012.5 hPa | 0 mm | - | - | - |
| 1778160893 | 10.56° C | 70% | 1012.5 hPa | 0 mm | - | - | - |
| 1778160845 | 10.56° C | 69% | 1012.5 hPa | 0 mm | - | - | - |
* Rain latest hour (hover to see other rain measurements)
** Current wind speed in m/s (hover to see current wind gust speed)